DLH9HC EDDF-EDDP

Flight info

Callsign DLH9HC
Flight time 0h 31m
Altitude 23000
Route SULUS Z12 LASGA T953 VOCIM T954 GOXLI
Aircraft A320/M-SDE3FGHIRWY/LB1

Departure

Time 2026-05-07 19:38
Airport Frankfurt Main Airport (EDDF)

Arrival

Time 2026-05-07 20:10
Airport Leipzig/Halle Airport (EDDP)
Time Latitude Longitude Altitude Speed Heading
2026-05-07 19:25 50.04411 8.56953 355 ft 0 kts 161°
2026-05-07 19:33 50.04397 8.56961 353 ft 5 kts 160°
2026-05-07 19:34 50.04348 8.56991 349 ft 0 kts 157°
2026-05-07 19:34 50.04323 8.56997 352 ft 7 kts 193°
2026-05-07 19:34 50.04268 8.56864 353 ft 20 kts 250°
2026-05-07 19:34 50.04217 8.56657 348 ft 21 kts 249°
2026-05-07 19:35 50.04167 8.56445 352 ft 21 kts 250°
2026-05-07 19:35 50.04115 8.56228 351 ft 22 kts 250°
2026-05-07 19:35 50.04061 8.56000 350 ft 23 kts 250°
2026-05-07 19:35 50.04002 8.55758 352 ft 25 kts 249°
2026-05-07 19:36 50.03938 8.55499 346 ft 26 kts 249°
2026-05-07 19:36 50.03874 8.55221 354 ft 28 kts 250°
2026-05-07 19:36 50.03804 8.54929 349 ft 30 kts 249°
2026-05-07 19:36 50.03746 8.54724 349 ft 13 kts 226°
2026-05-07 19:37 50.03667 8.54725 350 ft 11 kts 160°
2026-05-07 19:37 50.03604 8.54774 352 ft 9 kts 131°
2026-05-07 19:37 50.03598 8.54863 346 ft 8 kts 73°
2026-05-07 19:37 50.03629 8.55003 346 ft 33 kts 70°
2026-05-07 19:38 50.03801 8.55720 351 ft 105 kts 69°
2026-05-07 19:38 50.04125 8.57072 362 ft 158 kts 69°
2026-05-07 19:38 50.04512 8.58692 962 ft 160 kts 70°
2026-05-07 19:38 50.04887 8.60347 1670 ft 165 kts 70°
2026-05-07 19:39 50.05282 8.62135 2092 ft 183 kts 70°
2026-05-07 19:39 50.05714 8.64089 2550 ft 201 kts 70°
2026-05-07 19:39 50.06197 8.66270 2980 ft 225 kts 70°
2026-05-07 19:39 50.06718 8.68610 3802 ft 229 kts 69°
2026-05-07 19:40 50.07160 8.70993 4733 ft 231 kts 83°
2026-05-07 19:40 50.07046 8.73503 5312 ft 250 kts 98°
2026-05-07 19:40 50.06728 8.76329 5887 ft 268 kts 99°
2026-05-07 19:40 50.06380 8.79228 6693 ft 276 kts 100°
2026-05-07 19:41 50.06024 8.82196 7517 ft 282 kts 100°
2026-05-07 19:41 50.05762 8.85229 8413 ft 284 kts 90°
2026-05-07 19:41 50.05816 8.88349 9211 ft 291 kts 88°
2026-05-07 19:41 50.05876 8.91511 10117 ft 294 kts 88°
2026-05-07 19:42 50.05934 8.94786 10544 ft 314 kts 88°
2026-05-07 19:42 50.05995 8.98314 10806 ft 338 kts 88°
2026-05-07 19:42 50.06060 9.02093 11030 ft 360 kts 88°
2026-05-07 19:42 50.06123 9.06047 11563 ft 370 kts 88°
2026-05-07 19:43 50.06182 9.10078 12267 ft 375 kts 88°
2026-05-07 19:43 50.06242 9.14159 12979 ft 380 kts 88°
2026-05-07 19:43 50.06304 9.18297 13677 ft 385 kts 88°
2026-05-07 19:43 50.06367 9.22479 14317 ft 389 kts 88°
2026-05-07 19:44 50.06652 9.26677 14942 ft 393 kts 78°
2026-05-07 19:44 50.07420 9.30777 15580 ft 396 kts 68°
2026-05-07 19:44 50.08633 9.34645 16207 ft 399 kts 60°
2026-05-07 19:44 50.09962 9.38454 16854 ft 402 kts 60°
2026-05-07 19:45 50.11300 9.42297 17496 ft 406 kts 60°
2026-05-07 19:45 50.12649 9.46179 18132 ft 409 kts 60°
2026-05-07 19:45 50.14007 9.50103 18704 ft 413 kts 60°
2026-05-07 19:45 50.15370 9.54057 19255 ft 415 kts 61°
2026-05-07 19:46 50.16279 9.56699 19621 ft 417 kts 61°
2026-05-07 19:46 50.17652 9.60705 20163 ft 420 kts 61°
2026-05-07 19:46 50.18889 9.64845 20683 ft 424 kts 69°
2026-05-07 19:46 50.19686 9.69286 21188 ft 427 kts 79°
2026-05-07 19:47 50.20005 9.73908 21676 ft 430 kts 88°
2026-05-07 19:47 50.20005 9.78593 22166 ft 433 kts 90°
2026-05-07 19:47 50.19994 9.83293 22634 ft 436 kts 90°
2026-05-07 19:47 50.19985 9.88049 23007 ft 438 kts 90°
2026-05-07 19:48 50.19883 9.92829 23091 ft 445 kts 96°
2026-05-07 19:48 50.19324 9.97645 23093 ft 456 kts 105°
2026-05-07 19:48 50.18296 10.02356 23093 ft 461 kts 110°
2026-05-07 19:48 50.17568 10.07215 23083 ft 462 kts 92°
2026-05-07 19:49 50.17904 10.12182 23088 ft 462 kts 74°
2026-05-07 19:49 50.19112 10.16805 23086 ft 461 kts 59°
2026-05-07 19:49 50.20881 10.20973 23089 ft 461 kts 54°
2026-05-07 19:49 50.22685 10.25109 23088 ft 461 kts 55°
2026-05-07 19:50 50.24470 10.29265 23087 ft 461 kts 56°
2026-05-07 19:50 50.26253 10.33438 23087 ft 461 kts 56°
2026-05-07 19:50 50.28038 10.37606 23086 ft 461 kts 55°
2026-05-07 19:50 50.29829 10.41766 23087 ft 461 kts 55°
2026-05-07 19:51 50.31624 10.45927 23084 ft 461 kts 55°
2026-05-07 19:51 50.33416 10.50086 23030 ft 464 kts 55°
2026-05-07 19:51 50.35224 10.54285 22747 ft 465 kts 55°
2026-05-07 19:51 50.37030 10.58477 22479 ft 463 kts 55°
2026-05-07 19:52 50.38826 10.62652 22207 ft 462 kts 55°
2026-05-07 19:52 50.40613 10.66818 21940 ft 460 kts 55°
2026-05-07 19:52 50.42392 10.70976 21675 ft 458 kts 55°
2026-05-07 19:52 50.44167 10.75133 21416 ft 456 kts 56°
2026-05-07 19:53 50.45925 10.79269 21155 ft 455 kts 56°
2026-05-07 19:53 50.47676 10.83399 20898 ft 453 kts 56°
2026-05-07 19:53 50.49419 10.87517 20639 ft 452 kts 56°
2026-05-07 19:53 50.51155 10.91621 20385 ft 450 kts 56°
2026-05-07 19:54 50.52889 10.95712 20124 ft 448 kts 55°
2026-05-07 19:54 50.53472 10.97086 20050 ft 448 kts 55°
2026-05-07 19:54 50.55058 11.00830 19829 ft 446 kts 55°
2026-05-07 19:55 50.56772 11.04886 19581 ft 445 kts 56°
2026-05-07 19:55 50.58479 11.08934 19333 ft 443 kts 56°
2026-05-07 19:55 50.60179 11.12975 19117 ft 442 kts 56°
2026-05-07 19:55 50.62006 11.16834 19060 ft 440 kts 47°
2026-05-07 19:56 50.64189 11.20202 19084 ft 439 kts 38°
2026-05-07 19:56 50.66680 11.22965 19086 ft 437 kts 29°
2026-05-07 19:56 50.69396 11.25104 19087 ft 436 kts 23°
2026-05-07 19:56 50.72159 11.27101 18837 ft 436 kts 24°
2026-05-07 19:57 50.74890 11.29088 18280 ft 428 kts 24°
2026-05-07 19:57 50.77573 11.31045 17654 ft 421 kts 24°
2026-05-07 19:57 50.80208 11.32973 17048 ft 414 kts 24°
2026-05-07 19:57 50.82807 11.34881 16451 ft 409 kts 24°
2026-05-07 19:58 50.85369 11.36766 15863 ft 405 kts 24°
2026-05-07 19:58 50.87914 11.38638 15287 ft 400 kts 24°
2026-05-07 19:58 50.90430 11.40482 14721 ft 396 kts 24°
2026-05-07 19:58 50.92922 11.42312 14161 ft 392 kts 24°
2026-05-07 19:59 50.95382 11.44122 13584 ft 388 kts 24°
2026-05-07 19:59 50.97813 11.45913 12968 ft 383 kts 24°
2026-05-07 19:59 51.00218 11.47690 12371 ft 379 kts 24°
2026-05-07 19:59 51.02591 11.49448 11778 ft 374 kts 24°
2026-05-07 20:00 51.04930 11.51182 11194 ft 368 kts 24°
2026-05-07 20:00 51.07213 11.52967 10640 ft 364 kts 30°
2026-05-07 20:00 51.09087 11.55624 10112 ft 361 kts 51°
2026-05-07 20:00 51.10511 11.58846 9696 ft 352 kts 54°
2026-05-07 20:01 51.11861 11.62031 9285 ft 343 kts 54°
2026-05-07 20:01 51.13176 11.65141 8849 ft 335 kts 54°
2026-05-07 20:01 51.14462 11.68180 8425 ft 327 kts 54°
2026-05-07 20:01 51.15725 11.71157 8027 ft 320 kts 54°
2026-05-07 20:02 51.17161 11.73796 7613 ft 312 kts 37°
2026-05-07 20:02 51.19073 11.75275 7219 ft 301 kts 12°
2026-05-07 20:02 51.21090 11.75433 6825 ft 283 kts 356°
2026-05-07 20:02 51.22999 11.75185 6430 ft 269 kts 355°
2026-05-07 20:03 51.24813 11.74906 6014 ft 256 kts 356°
2026-05-07 20:03 51.26506 11.75207 5584 ft 242 kts 21°
2026-05-07 20:03 51.27992 11.76347 5186 ft 233 kts 29°
2026-05-07 20:03 51.29395 11.77588 4772 ft 229 kts 30°
2026-05-07 20:04 51.30780 11.78829 4350 ft 227 kts 30°
2026-05-07 20:04 51.32158 11.80065 3936 ft 227 kts 30°
2026-05-07 20:04 51.33539 11.81315 3525 ft 229 kts 31°
2026-05-07 20:04 51.34848 11.82768 3119 ft 230 kts 41°
2026-05-07 20:05 51.35994 11.84480 3030 ft 222 kts 44°
2026-05-07 20:05 51.37097 11.86212 3031 ft 222 kts 45°
2026-05-07 20:05 51.38196 11.87952 3027 ft 222 kts 45°
2026-05-07 20:05 51.39293 11.89688 3028 ft 222 kts 45°
2026-05-07 20:06 51.40393 11.91427 3032 ft 222 kts 45°
2026-05-07 20:06 51.41391 11.93307 3028 ft 222 kts 61°
2026-05-07 20:06 51.41866 11.95616 3024 ft 214 kts 84°
2026-05-07 20:06 51.41978 11.97910 3031 ft 200 kts 85°
2026-05-07 20:07 51.42087 12.00105 3020 ft 196 kts 85°
2026-05-07 20:07 51.42193 12.02266 2861 ft 194 kts 85°
2026-05-07 20:07 51.42298 12.04405 2621 ft 192 kts 85°
2026-05-07 20:07 51.42401 12.06535 2363 ft 191 kts 84°
2026-05-07 20:08 51.42503 12.08631 2127 ft 187 kts 84°
2026-05-07 20:08 51.42601 12.10669 1815 ft 178 kts 84°
2026-05-07 20:08 51.42695 12.12535 1629 ft 160 kts 84°
2026-05-07 20:08 51.42774 12.14258 1363 ft 151 kts 84°
2026-05-07 20:09 51.42866 12.15913 1138 ft 147 kts 84°
2026-05-07 20:09 51.42934 12.17531 918 ft 145 kts 84°
2026-05-07 20:09 51.43018 12.19143 751 ft 143 kts 85°
2026-05-07 20:10 51.43160 12.22292 429 ft 132 kts 84°
2026-05-07 20:10 51.43216 12.23519 442 ft 86 kts 85°
2026-05-07 20:10 51.43244 12.24200 446 ft 39 kts 86°
2026-05-07 20:10 51.43213 12.24608 442 ft 36 kts 114°
2026-05-07 20:11 51.43117 12.24917 448 ft 21 kts 116°
2026-05-07 20:11 51.43094 12.24993 449 ft 0 kts 116°
2026-05-07 20:12 51.43091 12.25001 449 ft 4 kts 116°
2026-05-07 20:12 51.43052 12.25099 449 ft 15 kts 142°
2026-05-07 20:13 51.42931 12.25087 449 ft 22 kts 192°
2026-05-07 20:13 51.42753 12.25021 458 ft 28 kts 195°
2026-05-07 20:13 51.42573 12.24954 468 ft 25 kts 193°
2026-05-07 20:13 51.42411 12.24890 477 ft 23 kts 194°
2026-05-07 20:14 51.42265 12.24826 486 ft 20 kts 195°
2026-05-07 20:14 51.42135 12.24776 491 ft 19 kts 192°
2026-05-07 20:14 51.41996 12.24728 491 ft 22 kts 192°
2026-05-07 20:14 51.41837 12.24671 482 ft 27 kts 192°
2026-05-07 20:15 51.41684 12.24603 479 ft 17 kts 213°
2026-05-07 20:15 51.41651 12.24427 474 ft 18 kts 265°
2026-05-07 20:15 51.41641 12.24220 479 ft 19 kts 265°
2026-05-07 20:15 51.41629 12.23982 474 ft 24 kts 266°
2026-05-07 20:16 51.41619 12.23698 471 ft 27 kts 266°
2026-05-07 20:16 51.41603 12.23376 466 ft 31 kts 266°
2026-05-07 20:16 51.41634 12.23028 460 ft 34 kts 285°
2026-05-07 20:16 51.41702 12.22643 447 ft 38 kts 285°
2026-05-07 20:17 51.41768 12.22265 429 ft 27 kts 285°
2026-05-07 20:17 51.41819 12.21968 436 ft 28 kts 286°
2026-05-07 20:17 51.41873 12.21656 435 ft 28 kts 284°
2026-05-07 20:17 51.41909 12.21465 429 ft 11 kts 312°
2026-05-07 20:18 51.41986 12.21473 430 ft 9 kts 15°
2026-05-07 20:18 51.41992 12.21476 431 ft 0 kts 15°